• In Czech Republic
  • List of Countries
  • For 7 days
  • Water Temperature
  • Satellite Maps
  • Weather Map
  • Weather Widgets
  • user-avatar
    Login

    Hourly Weather Arzebelyak

    Today, 25 April, Wednesday

    Time Temperature Precipitation Wind Pressure Humidity
    00:00 -1°C° 0 mm 1 mps 753 mmHg 90%
    01:00 -1°C° 0 mm 1 mps 753 mmHg 90%
    02:00 -1°C° 0 mm 1 mps 753 mmHg 90%
    03:00 -3°C° 0 mm 0 mps 754 mmHg 91%
    04:00 -2°C° 0 mm 0 mps 754 mmHg 88%
    05:00 -1°C° 0 mm 0 mps 754 mmHg 85%
    06:00 0°C° 0 mm 0 mps 754 mmHg 82%
    07:00 +2°C° 0 mm 0 mps 755 mmHg 75%
    08:00 +5°C° 0 mm 1 mps 755 mmHg 68%
    09:00 +7°C° 0 mm 1 mps 755 mmHg 60%
    10:00 +7°C° 0 mm 1 mps 755 mmHg 57%
    11:00 +7°C° 0 mm 2 mps 755 mmHg 53%
    12:00 +8°C° 0 mm 2 mps 755 mmHg 49%
    13:00 +8°C° 0 mm 2 mps 754 mmHg 48%
    14:00 +9°C° 0 mm 2 mps 754 mmHg 48%
    15:00 +9°C° 0 mm 3 mps 754 mmHg 47%
    16:00 +8°C° 0 mm 3 mps 754 mmHg 51%
    17:00 +8°C° 0 mm 3 mps 753 mmHg 56%
    18:00 +7°C° 0 mm 3 mps 753 mmHg 60%
    19:00 +5°C° 0 mm 3 mps 753 mmHg 63%
    20:00 +3°C° 0 mm 4 mps 753 mmHg 66%
    21:00 +1°C° 0 mm 4 mps 753 mmHg 69%
    22:00 +1°C° 0 mm 4 mps 753 mmHg 68%
    23:00 +3°C° 0 mm 4 mps 753 mmHg 68%

    Tomorrow, 26 April, Thursday

    Time Temperature Precipitation Wind Pressure Humidity
    00:00 +3°C° 0 mm 4 mps 753 mmHg 68%
    01:00 +3°C° 0 mm 4 mps 752 mmHg 71%
    02:00 +1°C° 0 mm 4 mps 752 mmHg 74%
    03:00 +1°C° 0 mm 4 mps 752 mmHg 77%
    04:00 +3°C° 0 mm 4 mps 751 mmHg 78%
    05:00 +2°C° 0 mm 5 mps 751 mmHg 79%
    06:00 +2°C° 0 mm 5 mps 750 mmHg 80%
    07:00 +3°C° 0 mm 5 mps 750 mmHg 80%
    08:00 +5°C° 0 mm 5 mps 749 mmHg 81%
    09:00 +5°C° 0 mm 6 mps 749 mmHg 81%
    10:00 +5°C° 0.8 mm 6 mps 748 mmHg 84%
    11:00 +7°C° 0.8 mm 6 mps 748 mmHg 86%
    12:00 +7°C° 0.8 mm 6 mps 747 mmHg 88%
    13:00 +7°C° 0.9 mm 5 mps 747 mmHg 89%
    14:00 +8°C° 0.9 mm 5 mps 746 mmHg 90%
    15:00 +8°C° 0.9 mm 5 mps 745 mmHg 91%
    16:00 +8°C° 0.7 mm 5 mps 744 mmHg 92%
    17:00 +8°C° 0.7 mm 4 mps 744 mmHg 94%
    18:00 +8°C° 0.7 mm 4 mps 743 mmHg 95%
    19:00 +8°C° 0.3 mm 3 mps 743 mmHg 96%
    20:00 +8°C° 0.3 mm 3 mps 742 mmHg 97%
    21:00 +8°C° 0.3 mm 2 mps 742 mmHg 97%
    22:00 +8°C° 0 mm 2 mps 742 mmHg 97%
    23:00 +8°C° 0 mm 3 mps 742 mmHg 96%

    Day after tomorrow, 27 April, Friday

    Time Temperature Precipitation Wind Pressure Humidity
    00:00 +8°C° 0 mm 3 mps 742 mmHg 96%
    01:00 +7°C° 0 mm 4 mps 742 mmHg 94%
    02:00 +7°C° 0 mm 5 mps 743 mmHg 93%
    03:00 +7°C° 0 mm 6 mps 743 mmHg 91%
    04:00 +7°C° 0 mm 6 mps 744 mmHg 90%
    05:00 +7°C° 0 mm 6 mps 744 mmHg 89%
    06:00 +7°C° 0 mm 6 mps 745 mmHg 88%
    07:00 +7°C° 0 mm 6 mps 746 mmHg 87%
    08:00 +8°C° 0 mm 7 mps 747 mmHg 85%
    09:00 +8°C° 0 mm 7 mps 748 mmHg 84%
    10:00 +9°C° 0 mm 7 mps 749 mmHg 81%
    11:00 +9°C° 0 mm 7 mps 750 mmHg 78%
    12:00 +9°C° 0 mm 7 mps 751 mmHg 76%
    13:00 +10°C° 0 mm 7 mps 751 mmHg 69%
    14:00 +11°C° 0 mm 6 mps 752 mmHg 62%
    15:00 +14°C° 0 mm 6 mps 752 mmHg 56%
    16:00 +13°C° 0 mm 5 mps 752 mmHg 59%
    17:00 +13°C° 0 mm 4 mps 753 mmHg 61%
    18:00 +13°C° 0 mm 2 mps 753 mmHg 64%
    19:00 +12°C° 0 mm 2 mps 753 mmHg 68%
    20:00 +10°C° 0 mm 2 mps 754 mmHg 71%
    21:00 +9°C° 0 mm 2 mps 754 mmHg 75%
    22:00 +8°C° 0 mm 2 mps 754 mmHg 76%
    23:00 +8°C° 0 mm 2 mps 754 mmHg 77%

    28 April, Saturday

    Time Temperature Precipitation Wind Pressure Humidity
    00:00 +8°C° 0 mm 2 mps 754 mmHg 78%
    01:00 +8°C° 0 mm 2 mps 754 mmHg 80%
    02:00 +8°C° 0 mm 2 mps 754 mmHg 81%
    03:00 +8°C° 0 mm 1 mps 753 mmHg 82%
    04:00 +8°C° 0.5 mm 1 mps 753 mmHg 86%
    05:00 +8°C° 0.5 mm 1 mps 752 mmHg 89%
    06:00 +8°C° 0.5 mm 1 mps 752 mmHg 93%
    07:00 +7°C° 0.6 mm 2 mps 752 mmHg 91%
    08:00 +8°C° 0.6 mm 2 mps 751 mmHg 89%
    09:00 +8°C° 0.6 mm 2 mps 751 mmHg 88%
    10:00 +9°C° 0.3 mm 3 mps 751 mmHg 84%
    11:00 +10°C° 0.3 mm 4 mps 750 mmHg 80%
    12:00 +11°C° 0.3 mm 4 mps 749 mmHg 76%
    13:00 +11°C° 0.7 mm 4 mps 750 mmHg 74%
    14:00 +11°C° 0.7 mm 4 mps 750 mmHg 73%
    15:00 +11°C° 0.7 mm 4 mps 750 mmHg 71%
    16:00 +11°C° 0.1 mm 4 mps 750 mmHg 71%
    17:00 +11°C° 0.1 mm 4 mps 751 mmHg 71%
    18:00 +11°C° 0.1 mm 4 mps 751 mmHg 70%
    19:00 +10°C° 0 mm 4 mps 752 mmHg 72%
    20:00 +9°C° 0 mm 3 mps 753 mmHg 74%
    21:00 +8°C° 0 mm 3 mps 753 mmHg 76%
    22:00 +7°C° 0 mm 3 mps 753 mmHg 77%
    23:00 +6°C° 0 mm 4 mps 754 mmHg 78%

    29 April, Sunday

    Time Temperature Precipitation Wind Pressure Humidity
    00:00 +5°C° 0 mm 4 mps 754 mmHg 80%
    01:00 +5°C° 0 mm 4 mps 754 mmHg 82%
    02:00 +5°C° 0 mm 4 mps 754 mmHg 84%
    03:00 +5°C° 0 mm 4 mps 755 mmHg 86%
    04:00 +5°C° 0 mm 4 mps 755 mmHg 86%
    05:00 +5°C° 0 mm 4 mps 756 mmHg 86%
    06:00 +5°C° 0 mm 4 mps 756 mmHg 87%
    07:00 +7°C° 0 mm 4 mps 756 mmHg 79%
    08:00 +9°C° 0 mm 5 mps 757 mmHg 71%
    09:00 +10°C° 0 mm 5 mps 757 mmHg 64%
    10:00 +12°C° 0 mm 5 mps 757 mmHg 58%
    11:00 +13°C° 0 mm 5 mps 757 mmHg 53%
    12:00 +14°C° 0 mm 6 mps 757 mmHg 47%
    13:00 +14°C° 0 mm 6 mps 757 mmHg 47%
    14:00 +14°C° 0 mm 5 mps 757 mmHg 46%
    15:00 +14°C° 0 mm 5 mps 757 mmHg 45%
    16:00 +13°C° 0 mm 5 mps 757 mmHg 50%
    17:00 +12°C° 0 mm 4 mps 757 mmHg 55%
    18:00 +12°C° 0 mm 3 mps 756 mmHg 60%
    19:00 +11°C° 0.1 mm 3 mps 756 mmHg 66%
    20:00 +10°C° 0.1 mm 2 mps 756 mmHg 72%
    21:00 +9°C° 0.1 mm 2 mps 756 mmHg 77%
    22:00 +9°C° 0.3 mm 2 mps 755 mmHg 81%
    23:00 +9°C° 0.3 mm 2 mps 755 mmHg 85%

    30 April, Monday

    Time Temperature Precipitation Wind Pressure Humidity
    00:00 +9°C° 0.3 mm 2 mps 754 mmHg 89%
    01:00 +8°C° 0 mm 2 mps 754 mmHg 91%
    02:00 +7°C° 0 mm 2 mps 754 mmHg 93%
    03:00 +7°C° 0 mm 2 mps 753 mmHg 95%
    04:00 +7°C° 0 mm 2 mps 753 mmHg 95%
    05:00 +8°C° 0 mm 3 mps 753 mmHg 94%
    06:00 +8°C° 0 mm 3 mps 753 mmHg 93%
    07:00 +8°C° 0.1 mm 4 mps 753 mmHg 89%
    08:00 +8°C° 0.1 mm 5 mps 753 mmHg 85%
    09:00 +9°C° 0.1 mm 6 mps 752 mmHg 81%
    10:00 +10°C° 0.2 mm 6 mps 753 mmHg 73%
    11:00 +11°C° 0.2 mm 7 mps 753 mmHg 65%
    12:00 +11°C° 0.2 mm 7 mps 753 mmHg 57%
    13:00 +11°C° 0.2 mm 7 mps 753 mmHg 57%
    14:00 +11°C° 0.2 mm 7 mps 753 mmHg 56%
    15:00 +12°C° 0.2 mm 7 mps 754 mmHg 56%
    16:00 +11°C° 0.1 mm 6 mps 754 mmHg 59%
    17:00 +10°C° 0.1 mm 5 mps 754 mmHg 63%
    18:00 +11°C° 0.1 mm 4 mps 755 mmHg 66%
    19:00 +9°C° 0 mm 3 mps 755 mmHg 72%
    20:00 +8°C° 0 mm 3 mps 755 mmHg 79%
    21:00 +7°C° 0 mm 3 mps 756 mmHg 86%
    22:00 +5°C° 0 mm 3 mps 756 mmHg 88%
    23:00 +5°C° 0 mm 2 mps 757 mmHg 91%
    Show more